sat.trackr.live / text

‹ back to catalog

2025-226A

NORAD 65938 · 2025-226A

PAYLOAD ACTIVE UNKNOWN

§ Identity

Operator
Country
PRC
Launch date
2025-10-11
Launch site
YSLA
Launch vehicle
Mass (kg)
RCS (m²)

External: N2YO · Heavens-Above · Gunter

§ Orbital elements

Epoch: 2026-09-20T12:51:23.164992Z

Period
94.89 min
Inclination
97.6384°
Eccentricity
0.0013614
Mean motion
15.17597743 rev/d
Perigee alt
503.7 km
Apogee alt
522.5 km
Semi-major
6,891.2 km
B*
2.5486e-4
RAAN
344.7737°
Arg perigee
171.3837°
Mean anomaly
188.7633°
Rev number
5,215

§ Raw data

2025-226A1 65938U 25226A   26263.53568478  .00005064  00000+0  25486-3 0  99952 65938  97.6384 344.7737 0013614 171.3837 188.7633 15.17597743 52158

JSON: /api/v1/satellites/65938 · /tle

For live sub-satellite position, see the globe view (requires WebGL).

§ Visibility from observer

Set your observer location to see the next 7 days of passes ≥ 10°. The values pass through the URL so the page stays shareable.

No JS? Fill the form by hand. The geolocation button needs JavaScript.